Location: Alafon
(8.4500°N, 4.2333°E)
Time: 23:37:05
(UTC+00:00)

Explorer 7 - Pass Details

Date: 31 July 2021
Orbit: 484 x 676 km, 50.3° (Epoch: 22 September)

Event Time Altitude Azimuth Distance (km) Brightness Sun altitude
Rises 01:41:53 0° 194° (SSW) 2,585 - -51.5°
Reaches altitude 10° 01:44:27 10° 179° (S) 1,680 - -51.1°
Maximum altitude 01:47:25 22° 127° (SE) 1,105 - -50.5°
Drops below altitude 10° 01:50:20 10° 74° (ENE) 1,653 - -50.0°
Sets 01:52:50 0° 59° (ENE) 2,531 - -49.5°
